DECAYED

STARLINK-31867, 60139 (Decayed)

Orbit data source: Space-Track

STARLINK-31867, 60139 was a payload satellite owned by SpaceX/Seattle (US) in LEO that was launched on Thu, 27 Jun 2024 UTC via an FALCON 9 launch vehicle from the Air Force Eastern Test Range (AFETR). Payload-class satellites include a variety of spacecraft equipped with specific instruments for various scientific and technological missions. These include communications satellites like Starlink; space stations such as the ISS; scientific satellites like the Hubble; Earth observation satellites from companies like Planet Labs, Umbra, and HawkEye 360; GPS; miniature CubeSats for education and research; and military/defense satellites.

Not visible in the next 10 days
Identifier
60139, 2024-120E
Orbit
Decayed
Country
Flag of USUS
Related business
Manufacturer
SpaceX/Seattle
Mission
Decayed Commercial Communications
Bus & Motor
STARLINK V2M, Unknown motor
Mass
730 kg wet, ~700 kg dry
Launch date (UTC)
2024-06-27 (2 years ago)
Launch vehicle
FALCON 9
Launch site
Air Force Eastern Test Range (AFETR)
Object type
Payload
Rocket body
Debris
Shape & HBR
Box + 2 Pan, 17.7 m
Radar Cross Section
33.884 m², Large (>1 m²)

Expand to show TLE details & history
Last TLE update: 3 months ago

TLE from 3 months ago
0 STARLINK-31867
1 60139U 24120E   26089.75156358  .12266683  12055-4  44038-2 0  9995
2 60139  53.1270 195.0747 0011231 318.7374  41.2817 16.24002332 99973
Epoch: 2026-03-30T18:02Z
TLE epoch observation values (Epoch: 2026-03-30T18:02:15.093Z)
Latitude
-0.00002°
Longitude
96.37319°
Altitude
204.084 km
Speed
7.789 km/s
True Right ascension
13h 00m 17s
True Declination
0° 00' 00"
Sunlit
Object was in full shadow at epoch
Visualization orbit readout
Latitude
Unknown
Longitude
Unknown
Altitude
Unknown
Speed
Unknown
Apparent Right ascension
Unknown
Apparent Declination
Unknown
Sunlit
N/A
Visualization observer readout
Local Sidereal Time
07:15:04
Azimuth
Unknown
Elevation
Unknown
Doppler factor
Unknown
Orbital elements
Apogee altitude
216.377 km
Perigee altitude
201.582 km
Semi-major axis
6,587.116 km
Eccentricity
0.00112
Inclination
53.127°
RAAN
195.0747°
Arg. of periapsis
318.7374°
True anomaly
41.3667°
Mean anomaly
41.2817°
Eccentric anomaly
41.32419°
Mean motion
4.05976 °/min
Orbital period
88.68 mins
BSTAR
0.0044038
Loading maneuver chart data...
Computing Atmospheric mass density...
Loading historical data...
Loading historical data...
Loading historical data...
Loading historical data...
Loading historical data...
Loading historical data...
Loading historical data...

Documentation

Showing up to 5 results
|